EW0259 Weather Reports


time (UTC)temp
F
wind
direction
speed
knots
gust
knots
rain 1hr
in
rain 24hr
in
rain mn
in
humidity
%
barometer
mb
20260508022239 63 321 0.0 2.6 0.00 0.00 0.00 55 1018.1
20260508021727 64 323 1.7 2.6 0.00 0.00 0.00 54 1018.2
20260508021235 64 320 0.0 1.7 0.00 0.00 0.00 54 1018.2
20260508020803 64 282 0.0 1.7 0.00 0.00 0.00 53 1018.2
20260508020731 64 282 0.0 1.7 0.00 0.00 0.00 53 1018.2
20260508020239 64 279 0.0 1.7 0.00 0.00 0.00 53 1018.3
20260508015726 64 284 0.0 1.7 0.00 0.00 0.00 54 1018.3
20260508015234 64 344 0.9 1.7 0.00 0.00 0.00 54 1018.2
20260508014726 64 327 0.0 1.7 0.00 0.00 0.00 54 1018.3
20260508014233 64 291 0.0 3.5 0.00 0.00 0.00 54 1018.4
20260508013721 64 326 1.7 3.5 0.00 0.00 0.00 54 1018.4
20260508013229 65 34 0.9 3.5 0.00 0.00 0.00 54 1018.4
20260508012736 65 38 0.9 6.1 0.00 0.00 0.00 54 1018.5
20260508012307 65 333 2.6 6.1 0.00 0.00 0.00 53 1018.4
20260508012233 65 333 2.6 6.1 0.00 0.00 0.00 53 1018.4
20260508011740 65 290 1.7 3.5 0.00 0.00 0.00 53 1018.4
20260508011228 65 223 0.9 2.6 0.00 0.00 0.00 53 1018.5
20260508010756 65 252 0.9 2.6 0.00 0.00 0.00 54 1018.7
20260508010312 65 332 0.9 4.3 0.00 0.00 0.00 53 1018.8
20260508005808 65 5 0.9 4.3 0.00 0.00 0.00 53 1018.9
20260508005224 65 338 0.9 2.6 0.00 0.00 0.00 54 1019.0
20260508004732 65 22 0.9 3.5 0.00 0.00 0.00 53 1018.9
20260508004300 65 313 0.9 3.5 0.00 0.00 0.00 52 1018.9
20260508003757 65 329 0.9 5.2 0.00 0.00 0.00 53 1019.0
20260508003233 65 273 1.7 6.1 0.00 0.00 0.00 53 1019.1
20260508002724 65 299 0.9 2.6 0.00 0.00 0.00 52 1019.1
20260508002232 65 346 0.9 3.5 0.00 0.00 0.00 52 1019.1
20260508001740 65 355 1.7 4.3 0.00 0.00 0.00 53 1019.0
20260508001228 65 348 0.9 4.3 0.00 0.00 0.00 52 1019.0
20260508000736 65 252 0.9 4.3 0.00 0.00 0.00 52 1019.0
20260508000224 65 335 1.7 4.3 0.00 0.00 0.00 52 1019.1
20260507235731 65 299 0.9 4.3 0.00 0.00 0.00 53 1019.1
20260507235239 66 281 1.7 4.3 0.00 0.00 0.00 52 1019.1
20260507234727 65 281 1.7 3.5 0.00 0.00 0.00 52 1019.1
20260507234239 65 146 0.9 4.3 0.00 0.00 0.00 52 1019.1
20260507233727 65 44 2.6 3.5 0.00 0.00 0.00 52 1019.1
20260507233235 65 319 1.7 3.5 0.00 0.00 0.00 50 1019.2
20260507232722 65 324 0.9 2.6 0.00 0.00 0.00 52 1019.2
20260507232310 65 296 0.9 5.2 0.00 0.00 0.00 52 1019.2
20260507231806 65 261 2.6 5.2 0.00 0.00 0.00 53 1019.2
20260507231223 65 271 0.0 3.5 0.00 0.00 0.00 53 1019.3
20260507230811 65 205 0.9 3.5 0.00 0.00 0.00 52 1019.4
20260507230308 65 92 0.0 2.6 0.00 0.00 0.00 52 1019.5
20260507225723 65 9 0.9 2.6 0.00 0.00 0.00 53 1019.5
20260507225311 65 355 1.7 2.6 0.00 0.00 0.00 52 1019.5
20260507224727 65 333 0.9 5.2 0.00 0.00 0.00 53 1019.7
20260507224255 64 307 1.7 5.2 0.00 0.00 0.00 53 1019.6
20260507224223 64 307 1.7 5.2 0.00 0.00 0.00 53 1019.6
20260507223731 65 231 0.9 6.1 0.00 0.00 0.00 53 1019.6
20260507223239 65 261 1.7 6.1 0.00 0.00 0.00 54 1019.5
20260507222806 65 148 0.9 2.6 0.00 0.00 0.00 53 1019.7
20260507222734 65 148 0.9 2.6 0.00 0.00 0.00 53 1019.7
20260507222222 64 50 0.9 3.5 0.00 0.00 0.00 55 1019.7
20260507221734 63 55 0.9 3.5 0.00 0.00 0.00 55 1019.8
20260507221222 63 171 0.9 2.6 0.00 0.00 0.00 58 1019.9
20260507220810 62 320 0.0 3.5 0.00 0.00 0.00 58 1019.8
20260507220227 62 102 0.9 3.5 0.00 0.00 0.00 56 1019.8
20260507215754 63 309 1.7 3.5 0.00 0.00 0.00 57 1019.9
20260507215230 62 178 0.9 4.3 0.00 0.00 0.00 60 1020.0
20260507214738 61 286 1.7 5.2 0.00 0.00 0.00 59 1020.0
20260507214226 61 225 1.7 5.2 0.00 0.00 0.00 59 1020.1
20260507213734 62 295 0.9 2.6 0.00 0.00 0.00 59 1020.2
20260507213222 61 153 0.0 1.7 0.00 0.00 0.00 58 1020.2
20260507212729 61 131 0.0 1.7 0.00 0.00 0.00 58 1020.2
20260507212221 61 150 0.9 2.6 0.00 0.00 0.00 58 1020.4
20260507211729 61 34 0.0 2.6 0.00 0.00 0.00 59 1020.4
20260507211237 61 291 1.7 2.6 0.00 0.00 0.00 60 1020.5
20260507210725 60 135 0.9 3.5 0.00 0.00 0.00 63 1020.5
20260507210313 60 97 1.7 4.3 0.00 0.00 0.00 60 1020.6
20260507205728 60 248 1.7 4.3 0.00 0.00 0.00 60 1020.7
20260507205256 60 228 0.9 3.5 0.00 0.00 0.00 62 1020.6
20260507204812 60 198 0.9 4.3 0.00 0.00 0.00 62 1020.8
20260507204740 60 198 0.9 4.3 0.00 0.00 0.00 62 1020.8
20260507204228 60 296 1.7 4.3 0.00 0.00 0.00 60 1020.8
20260507203736 61 323 1.7 4.3 0.00 0.00 0.00 60 1020.7
20260507203224 61 281 1.7 3.5 0.00 0.00 0.00 61 1020.8
20260507202731 61 257 2.6 3.5 0.00 0.00 0.00 61 1020.8
20260507202239 60 251 0.9 2.6 0.00 0.00 0.00 61 1020.8
20260507201731 60 180 0.9 2.6 0.00 0.00 0.00 63 1020.9
20260507201239 60 309 0.9 2.6 0.00 0.00 0.00 62 1020.9
20260507200806 60 51 0.9 2.6 0.00 0.00 0.00 62 1021.0
20260507200735 60 51 0.9 2.6 0.00 0.00 0.00 62 1021.0
20260507200223 60 334 1.7 3.5 0.00 0.00 0.00 62 1020.9
20260507195730 60 100 0.9 3.5 0.00 0.00 0.00 62 1020.9
20260507195238 59 88 0.0 1.7 0.00 0.00 0.00 63 1020.9
20260507194726 59 167 0.9 2.6 0.00 0.00 0.00 64 1020.9
20260507194254 59 127 2.6 3.5 0.00 0.00 0.00 63 1021.0
20260507193811 59 130 1.7 3.5 0.00 0.00 0.00 63 1021.2
20260507193308 59 58 0.9 2.6 0.00 0.00 0.00 63 1021.2
20260507192724 59 16 1.7 3.5 0.00 0.00 0.00 64 1021.2
20260507192232 59 325 1.7 3.5 0.00 0.00 0.00 63 1021.2
20260507191759 59 309 0.9 3.5 0.00 0.00 0.00 64 1021.1
20260507191728 59 309 0.9 3.5 0.00 0.00 0.00 64 1021.1
20260507191256 59 138 0.9 2.6 0.00 0.00 0.00 65 1021.1
20260507190732 58 252 0.9 3.5 0.00 0.00 0.00 65 1021.1
20260507190240 58 159 1.7 3.5 0.00 0.00 0.00 65 1021.3
20260507185807 58 78 1.7 5.2 0.00 0.00 0.00 66 1021.3
20260507185228 57 83 2.6 6.1 0.00 0.00 0.00 65 1021.2
20260507184736 57 74 0.9 5.2 0.00 0.00 0.00 67 1021.4
20260507184303 57 93 3.5 5.2 0.00 0.00 0.00 67 1021.5
20260507183759 56 182 1.7 5.2 0.00 0.00 0.00 68 1021.5
20260507183728 56 182 1.7 5.2 0.00 0.00 0.00 68 1021.5
20260507183236 57 115 1.7 2.6 0.00 0.00 0.00 68 1021.5
20260507182723 56 269 0.9 3.5 0.00 0.00 0.00 68 1021.6
20260507182231 57 273 1.7 3.5 0.00 0.00 0.00 67 1021.5
20260507181739 57 122 0.9 2.6 0.00 0.00 0.00 66 1021.5
20260507181227 57 105 0.0 2.6 0.00 0.00 0.00 68 1021.5
20260507180735 57 116 0.0 1.7 0.00 0.00 0.00 69 1021.4
20260507180223 56 163 0.9 1.7 0.00 0.00 0.00 68 1021.5
20260507175730 56 108 0.9 2.6 0.00 0.00 0.00 67 1021.6
20260507175222 56 273 0.9 2.6 0.00 0.00 0.00 73 1021.7
20260507174730 55 157 0.9 3.5 0.00 0.00 0.00 73 1021.7
20260507174258 55 265 1.7 5.2 0.00 0.00 0.00 73 1021.7
20260507174226 55 265 1.7 5.2 0.00 0.00 0.00 73 1021.7
20260507173733 55 344 0.9 5.2 0.00 0.00 0.00 73 1021.8
20260507173241 55 85 0.9 4.3 0.00 0.00 0.00 73 1021.7
20260507172808 54 323 1.7 4.3 0.00 0.00 0.00 73 1021.7
20260507172736 54 323 1.7 4.3 0.00 0.00 0.00 73 1021.7
20260507172224 55 258 1.7 2.6 0.00 0.00 0.00 74 1021.6
20260507171732 54 192 0.0 1.7 0.00 0.00 0.00 75 1021.6
20260507171240 54 123 0.0 2.6 0.00 0.00 0.00 76 1021.6
20260507170728 54 196 0.9 2.6 0.00 0.00 0.00 75 1021.6
20260507170256 54 302 0.0 2.6 0.00 0.00 0.00 75 1021.6
20260507165731 54 15 0.9 2.6 0.00 0.00 0.00 77 1021.5
20260507165223 53 269 0.9 2.6 0.00 0.00 0.00 76 1021.5
20260507164807 53 40 0.9 2.6 0.00 0.00 0.00 77 1021.6
20260507164735 53 40 0.9 2.6 0.00 0.00 0.00 77 1021.6
20260507164302 53 296 0.0 3.5 0.00 0.00 0.00 77 1021.6
20260507163723 53 281 0.9 2.6 0.00 0.00 0.00 78 1021.6
20260507163231 53 55 0.0 1.7 0.00 0.00 0.00 79 1021.6
20260507162738 52 302 0.0 2.6 0.00 0.00 0.00 79 1021.7
20260507162226 52 310 0.9 3.5 0.00 0.00 0.00 78 1021.7
20260507161754 52 268 1.7 3.5 0.00 0.00 0.00 78 1021.6
20260507161231 52 325 0.9 1.7 0.00 0.00 0.00 78 1021.7
20260507160759 52 254 0.9 2.6 0.00 0.00 0.00 78 1021.7
20260507160236 53 282 0.0 2.6 0.00 0.00 0.00 78 1021.6
20260507155723 53 336 0.9 2.6 0.00 0.00 0.00 78 1021.6
20260507155231 53 335 0.0 2.6 0.00 0.00 0.00 79 1021.6
20260507154739 52 279 0.9 2.6 0.00 0.00 0.00 79 1021.6
20260507154231 52 266 0.0 1.7 0.00 0.00 0.00 78 1021.6
20260507153739 52 72 0.0 1.7 0.00 0.00 0.00 78 1021.6
20260507153307 52 285 0.0 1.7 0.00 0.00 0.00 79 1021.6
20260507152723 52 288 0.0 2.6 0.00 0.00 0.00 79 1021.6
20260507152231 52 286 0.0 3.5 0.00 0.00 0.00 79 1021.5
20260507151739 52 254 0.9 2.6 0.00 0.00 0.00 79 1021.6
20260507151227 52 257 0.0 1.7 0.00 0.00 0.00 80 1021.5
20260507150754 52 273 0.0 3.5 0.00 0.00 0.00 80 1021.6
20260507150231 52 281 0.0 3.5 0.00 0.00 0.00 79 1021.5
20260507145758 52 286 0.9 2.6 0.00 0.00 0.00 79 1021.7
20260507145726 52 286 0.9 2.6 0.00 0.00 0.00 79 1021.7
20260507145234 52 240 1.7 2.6 0.00 0.00 0.00 78 1021.9
20260507144802 53 32 0.0 2.6 0.00 0.00 0.00 78 1021.8
20260507144238 53 55 0.0 2.6 0.00 0.00 0.00 78 1021.8
20260507143726 53 115 0.0 1.7 0.00 0.00 0.00 78 1021.7
20260507143235 53 135 0.9 1.7 0.00 0.00 0.00 78 1021.8
20260507142722 53 82 0.0 0.0 0.00 0.00 0.00 79 1021.8
20260507142229 52 82 0.0 0.0 0.00 0.00 0.00 80 1021.8
20260507141737 52 79 0.0 1.7 0.00 0.00 0.00 82 1021.8
20260507141225 51 74 0.0 1.7 0.00 0.00 0.00 82 1021.7
20260507140731 51 74 0.0 1.7 0.00 0.00 0.00 82 1021.7
20260507140239 50 109 0.0 0.0 0.00 0.00 0.00 85 1021.7
20260507135726 50 108 0.0 0.0 0.00 0.00 0.00 85 1021.6
20260507135233 50 108 0.0 0.0 0.00 0.00 0.00 86 1021.7
20260507134725 49 108 0.0 0.0 0.00 0.00 0.00 87 1021.7
20260507134233 49 108 0.0 0.0 0.00 0.00 0.00 86 1021.6
20260507133721 49 108 0.0 0.0 0.00 0.00 0.00 86 1021.5
20260507133229 49 108 0.0 0.0 0.00 0.00 0.00 86 1021.5
20260507132736 49 108 0.0 0.0 0.00 0.00 0.00 87 1021.5
20260507132224 49 108 0.0 0.0 0.00 0.00 0.00 88 1021.6
20260507131732 49 136 0.0 0.0 0.00 0.00 0.00 88 1021.5
20260507131240 49 136 0.0 0.0 0.00 0.00 0.00 88 1021.5
20260507130728 49 136 0.0 0.0 0.00 0.00 0.00 88 1021.5
20260507130256 49 136 0.0 0.0 0.00 0.00 0.00 88 1021.5
20260507125731 49 136 0.0 0.0 0.00 0.00 0.00 88 1021.5
20260507125223 49 136 0.0 0.0 0.00 0.00 0.00 88 1021.5
20260507124731 49 136 0.0 0.0 0.00 0.00 0.00 89 1021.5
20260507124239 49 136 0.0 0.0 0.00 0.00 0.00 89 1021.6
20260507123727 49 136 0.0 0.0 0.00 0.00 0.00 89 1021.7
20260507123234 49 136 0.0 0.0 0.00 0.00 0.00 89 1021.7
20260507122721 49 136 0.0 0.0 0.00 0.00 0.00 89 1021.6
20260507122229 49 136 0.0 0.0 0.00 0.00 0.00 89 1021.6
20260507121737 48 136 0.0 0.0 0.00 0.00 0.00 90 1021.6
20260507121305 49 136 0.0 0.0 0.00 0.00 0.00 90 1021.7
20260507120722 49 136 0.0 0.0 0.00 0.00 0.00 90 1021.8
20260507120234 49 136 0.0 0.0 0.00 0.00 0.00 90 1021.8
20260507115801 49 136 0.0 0.0 0.00 0.00 0.00 90 1021.9
20260507115729 49 136 0.0 0.0 0.00 0.00 0.00 90 1021.9
20260507115257 49 136 0.0 0.0 0.00 0.00 0.00 89 1021.9
20260507115225 49 136 0.0 0.0 0.00 0.00 0.00 89 1021.9
20260507114733 49 136 0.0 0.0 0.00 0.00 0.00 89 1021.9
20260507114240 49 136 0.0 0.0 0.00 0.00 0.00 89 1022.0
20260507113728 49 136 0.0 0.0 0.00 0.00 0.00 89 1022.0
20260507113236 49 136 0.0 0.0 0.00 0.00 0.00 89 1022.1
20260507112723 49 136 0.0 0.0 0.00 0.00 0.00 89 1022.1
20260507112230 49 136 0.0 0.0 0.00 0.00 0.00 89 1022.1
20260507111738 50 136 0.0 0.0 0.00 0.00 0.00 88 1022.2
20260507111306 50 136 0.0 0.0 0.00 0.00 0.00 88 1022.2
20260507111234 50 136 0.0 0.0 0.00 0.00 0.00 88 1022.2
20260507110722 50 136 0.0 0.0 0.00 0.00 0.00 88 1022.1
20260507110309 50 136 0.0 0.0 0.00 0.00 0.00 88 1022.2
20260507105805 50 136 0.0 0.0 0.00 0.00 0.00 88 1022.1
20260507105733 50 136 0.0 0.0 0.00 0.00 0.00 88 1022.1
20260507105221 50 136 0.0 0.0 0.00 0.00 0.00 89 1022.2
20260507104809 50 136 0.0 0.0 0.00 0.00 0.00 89 1022.1
20260507104737 50 136 0.0 0.0 0.00 0.00 0.00 89 1022.1
20260507104229 50 136 0.0 0.0 0.00 0.00 0.00 89 1022.2
20260507103757 51 136 0.0 0.0 0.00 0.00 0.00 89 1022.2
20260507103233 51 136 0.0 0.0 0.00 0.00 0.00 89 1022.3
20260507102740 51 136 0.0 0.0 0.00 0.00 0.00 89 1022.3
20260507102228 51 136 0.0 0.0 0.00 0.00 0.00 89 1022.4
20260507101756 51 136 0.0 0.0 0.00 0.00 0.00 89 1022.5
20260507101232 51 136 0.0 0.0 0.00 0.00 0.00 88 1022.3
20260507100759 51 136 0.0 0.0 0.00 0.00 0.00 88 1022.3
20260507100236 51 136 0.0 0.0 0.00 0.00 0.00 88 1022.3
20260507095722 51 136 0.0 0.0 0.00 0.00 0.00 89 1022.3
20260507095230 51 136 0.0 0.0 0.00 0.00 0.00 89 1022.3
20260507094738 51 137 0.0 0.0 0.00 0.00 0.00 89 1022.3
20260507094226 51 137 0.0 0.0 0.00 0.00 0.00 88 1022.2
20260507093738 51 137 0.0 0.9 0.00 0.00 0.00 88 1022.3
20260507093226 51 137 0.0 1.7 0.00 0.00 0.00 88 1022.3
20260507092733 51 155 0.0 1.7 0.00 0.00 0.00 89 1022.4
20260507092221 51 88 0.0 0.0 0.00 0.00 0.00 89 1022.3
20260507091729 51 88 0.0 1.7 0.00 0.00 0.00 89 1022.2
20260507091236 51 88 0.0 1.7 0.00 0.00 0.00 89 1022.3
20260507090804 51 88 0.0 1.7 0.00 0.00 0.00 89 1022.3
20260507090240 51 88 0.0 1.7 0.00 0.00 0.00 89 1022.2
20260507085727 51 355 0.0 1.7 0.00 0.00 0.00 89 1022.3
20260507085255 51 340 0.0 0.0 0.00 0.00 0.00 89 1022.1
20260507085223 51 340 0.0 0.0 0.00 0.00 0.00 89 1022.1
20260507084730 51 271 0.0 0.0 0.00 0.00 0.00 89 1022.1
20260507084222 51 271 0.0 0.0 0.00 0.00 0.00 89 1021.9
20260507083730 51 271 0.0 0.0 0.00 0.00 0.00 89 1022.1
20260507083238 51 271 0.0 0.0 0.00 0.00 0.00 89 1022.0
20260507082725 51 270 0.0 1.7 0.00 0.00 0.00 89 1022.0
20260507082232 51 277 0.0 1.7 0.00 0.00 0.00 89 1022.0
20260507081740 51 336 0.0 1.7 0.00 0.00 0.00 89 1022.0
20260507081228 51 224 0.0 1.7 0.00 0.00 0.00 89 1022.0
20260507080756 51 224 0.0 1.7 0.00 0.00 0.00 89 1022.0
20260507080724 51 224 0.0 1.7 0.00 0.00 0.00 89 1022.0
20260507080232 51 224 0.0 1.7 0.00 0.00 0.00 89 1021.9
20260507075739 51 277 0.0 1.7 0.00 0.00 0.00 89 1021.9
20260507075227 51 273 0.0 1.7 0.00 0.00 0.00 88 1022.0
20260507074739 51 273 0.9 1.7 0.00 0.00 0.00 88 1022.0
20260507074227 51 239 0.0 1.7 0.00 0.00 0.00 89 1021.9
20260507073735 51 192 0.0 2.6 0.00 0.00 0.00 89 1021.9
20260507073223 51 192 0.9 2.6 0.00 0.00 0.00 89 1021.9
20260507072809 52 290 0.0 0.0 0.00 0.00 0.00 89 1021.9
20260507072738 52 290 0.0 0.0 0.00 0.00 0.00 89 1021.9
20260507072307 52 290 0.0 0.0 0.00 0.00 0.00 89 1022.0
20260507071722 52 290 0.0 0.0 0.00 0.00 0.00 89 1021.9
20260507071230 52 355 0.0 0.0 0.00 0.00 0.00 89 1021.9
20260507070757 52 355 0.0 0.0 0.00 0.00 0.00 89 1021.9
20260507070234 52 230 0.0 1.7 0.00 0.00 0.00 89 1022.0
20260507065811 52 247 0.0 2.6 0.00 0.00 0.00 89 1022.0
20260507065739 52 247 0.0 2.6 0.00 0.00 0.00 89 1022.0
20260507065227 52 266 0.9 2.6 0.00 0.00 0.00 88 1022.0
20260507064735 52 271 0.0 2.6 0.00 0.00 0.00 88 1022.0
20260507064223 52 256 0.9 2.6 0.00 0.00 0.00 88 1021.9
20260507063735 52 223 0.0 0.0 0.00 0.00 0.00 88 1022.0
20260507063223 52 297 0.0 1.7 0.00 0.00 0.00 88 1022.0
20260507062810 52 296 0.0 1.7 0.00 0.00 0.00 87 1022.0
20260507062738 52 296 0.0 1.7 0.00 0.00 0.00 87 1022.0
20260507062226 52 294 0.0 1.7 0.00 0.00 0.00 87 1022.0
20260507061754 52 290 0.9 2.6 0.00 0.00 0.00 87 1022.1
20260507061310 52 290 0.9 2.6 0.00 0.00 0.00 87 1022.0
20260507060726 53 300 0.0 1.7 0.00 0.00 0.00 86 1022.1
20260507060254 53 342 0.0 2.6 0.00 0.00 0.00 86 1022.1
20260507055729 53 229 0.9 2.6 0.00 0.00 0.00 86 1022.2
20260507055237 53 247 0.0 4.3 0.00 0.00 0.00 86 1022.2
20260507054725 53 351 1.7 4.3 0.00 0.00 0.00 86 1022.1
20260507054253 53 5 0.0 1.7 0.00 0.00 0.00 86 1022.2
20260507053810 53 48 0.0 1.7 0.00 0.00 0.00 86 1022.1
20260507053738 53 48 0.0 1.7 0.00 0.00 0.00 86 1022.1
20260507053306 53 17 0.9 3.5 0.00 0.00 0.00 85 1022.1
20260507052721 53 305 0.9 3.5 0.00 0.00 0.00 85 1022.1
20260507052229 53 273 0.9 2.6 0.00 0.00 0.00 84 1022.2
20260507051737 53 317 0.9 2.6 0.00 0.00 0.00 83 1022.1
20260507051305 54 360 0.9 2.6 0.00 0.00 0.00 83 1022.2
20260507051233 54 360 0.9 2.6 0.00 0.00 0.00 83 1022.2
20260507050724 54 299 0.0 2.6 0.00 0.00 0.00 82 1022.2
20260507050232 54 78 0.0 2.6 0.00 0.00 0.00 82 1022.1
20260507045739 54 114 0.9 2.6 0.00 0.00 0.00 82 1022.2
20260507045227 54 40 0.0 0.0 0.00 0.00 0.00 81 1022.2
20260507044755 54 42 0.0 0.0 0.00 0.00 0.00 81 1022.2
20260507044723 54 42 0.0 0.0 0.00 0.00 0.00 81 1022.2
20260507044231 54 42 0.0 0.0 0.00 0.00 0.00 81 1022.2
20260507043739 54 346 0.0 0.0 0.00 0.00 0.00 81 1022.1
20260507043307 54 47 0.0 0.9 0.00 0.00 0.00 81 1022.0
20260507042722 54 291 0.0 0.9 0.00 0.00 0.00 81 1022.1
20260507042229 54 288 0.0 0.0 0.00 0.00 0.00 81 1022.0
20260507041736 54 288 0.0 0.0 0.00 0.00 0.00 81 1022.0
20260507041224 54 294 0.0 0.0 0.00 0.00 0.00 81 1022.2
20260507040736 54 293 0.0 0.0 0.00 0.00 0.00 80 1022.2
20260507040224 54 294 0.0 1.7 0.00 0.00 0.00 81 1022.1
20260507035731 54 293 0.0 1.7 0.00 0.00 0.00 80 1022.0
20260507035259 55 52 0.0 0.0 0.00 0.00 0.00 80 1022.1
20260507035227 55 52 0.0 0.0 0.00 0.00 0.00 80 1022.1
20260507034735 55 92 0.0 1.7 0.00 0.00 0.00 80 1022.0
20260507034223 55 84 0.0 2.6 0.00 0.00 0.00 80 1021.9
20260507033811 55 266 0.0 2.6 0.00 0.00 0.00 80 1021.9
20260507033228 55 266 0.0 1.7 0.00 0.00 0.00 80 1021.8
20260507032735 55 265 0.0 1.7 0.00 0.00 0.00 79 1021.8
20260507032305 55 298 0.0 2.6 0.00 0.00 0.00 79 1021.7
20260507031739 55 290 0.0 2.6 0.00 0.00 0.00 79 1021.6
20260507031227 55 81 0.0 1.7 0.00 0.00 0.00 78 1021.6
20260507030755 55 198 0.0 2.6 0.00 0.00 0.00 78 1021.6
20260507030311 55 271 0.0 2.6 0.00 0.00 0.00 78 1021.5
20260507025726 55 288 0.0 1.7 0.00 0.00 0.00 78 1021.6
20260507025238 56 65 0.0 4.3 0.00 0.00 0.00 78 1021.5
20260507024726 56 331 0.0 3.5 0.00 0.00 0.00 78 1021.7
20260507024233 56 274 0.9 3.5 0.00 0.00 0.00 77 1021.7
20260507023721 56 315 0.9 1.7 0.00 0.00 0.00 77 1021.5
20260507023229 56 313 0.9 1.7 0.00 0.00 0.00 77 1021.4
20260507022735 56 109 0.0 1.7 0.00 0.00 0.00 77 1021.4